Total_Precipitation_Accumulation
0.01 0.01 0.02 0.02 0.01 0.00 0.00 0.00 0.00 0.00 0.00 0.00 0.02 0.03 0.02 0.02 0.06 0.13 0.23 0.31 0.41 0.39 0.31 0.18 0.09 0.08 0.09 0.07 0.08 0.10 0.13 0.15 0.16 0.14 0.12 0.09 0.08 0.05 0.02 0.03 0.04 0.06 0.06
0.01 0.01 0.03 0.02 0.01 0.01 0.00 0.00 0.00 0.00 0.00 0.00 0.01 0.01 0.02 0.02 0.02 0.06 0.17 0.38 0.51 0.44 0.45 0.40 0.27 0.19 0.15 0.10 0.10 0.10 0.13 0.13 0.12 0.11 0.09 0.09 0.07 0.04 0.01 0.03 0.04 0.06 0.07
0.01 0.01 0.02 0.03 0.02 0.01 0.00 0.00 0.00 0.00 0.00 0.00 0.00 0.00 0.00 0.01 0.01 0.01 0.02 0.09 0.18 0.27 0.33 0.34 0.33 0.27 0.20 0.14 0.13 0.08 0.08 0.10 0.10 0.11 0.10 0.08 0.05 0.03 0.01 0.02 0.03 0.04 0.04
0.02 0.01 0.01 0.03 0.03 0.01 0.00 0.01 0.01 0.01 0.00 0.00 0.00 0.00 0.00 0.00 0.00 0.00 0.00 0.01 0.02 0.06 0.15 0.17 0.19 0.20 0.23 0.24 0.22 0.12 0.06 0.06 0.06 0.07 0.09 0.09 0.05 0.03 0.03 0.04 0.02 0.03 0.02
0.11 0.08 0.05 0.06 0.04 0.03 0.04 0.04 0.04 0.02 0.02 0.01 0.01 0.00 0.00 0.00 0.00 0.00 0.00 0.00 0.00 0.01 0.02 0.04 0.05 0.05 0.07 0.09 0.15 0.15 0.08 0.04 0.05 0.05 0.05 0.06 0.06 0.05 0.07 0.06 0.02 0.01 0.00
0.37 0.25 0.20 0.20 0.18 0.16 0.16 0.11 0.12 0.11 0.06 0.03 0.00 0.00 0.01 0.00 0.00 0.00 0.00 0.00 0.00 0.00 0.00 0.00 0.00 0.00 0.01 0.01 0.02 0.03 0.04 0.04 0.03 0.03 0.03 0.03 0.03 0.03 0.05 0.06 0.02 0.01 0.01
0.48 0.41 0.34 0.35 0.36 0.31 0.29 0.28 0.29 0.34 0.20 0.05 0.04 0.04 0.01 0.00 0.00 0.00 0.00 0.00 0.00 0.00 0.00 0.00 0.00 0.00 0.00 0.00 0.00 0.01 0.03 0.06 0.05 0.03 0.02 0.01 0.01 0.01 0.02 0.05 0.04 0.02 0.01
0.50 0.53 0.51 0.49 0.49 0.49 0.47 0.41 0.41 0.50 0.37 0.16 0.14 0.23 0.12 0.03 0.00 0.00 0.00 0.00 0.00 0.00 0.00 0.00 0.00 0.00 0.00 0.00 0.00 0.00 0.02 0.05 0.07 0.04 0.02 0.01 0.01 0.00 0.01 0.03 0.05 0.04 0.03
0.66 0.66 0.65 0.60 0.56 0.49 0.51 0.55 0.58 0.72 0.57 0.34 0.25 0.27 0.24 0.17 0.04 0.00 0.00 0.00 0.00 0.00 0.00 0.00 0.00 0.00 0.00 0.00 0.00 0.00 0.00 0.01 0.04 0.05 0.04 0.02 0.02 0.02 0.01 0.01 0.04 0.05 0.05
0.55 0.64 0.60 0.59 0.56 0.48 0.54 0.61 0.68 0.84 0.84 0.58 0.39 0.28 0.19 0.13 0.08 0.05 0.01 0.00 0.00 0.00 0.00 0.00 0.00 0.00 0.00 0.00 0.00 0.00 0.00 0.00 0.01 0.03 0.05 0.05 0.04 0.04 0.04 0.03 0.03 0.04 0.06
0.28 0.31 0.38 0.47 0.53 0.54 0.58 0.69 0.75 0.92 0.91 0.78 0.52 0.41 0.36 0.26 0.16 0.09 0.08 0.02 0.00 0.00 0.00 0.00 0.00 0.00 0.00 0.00 0.00 0.00 0.00 0.00 0.00 0.01 0.01 0.03 0.03 0.05 0.07 0.06 0.06 0.05 0.04
0.18 0.17 0.21 0.33 0.49 0.63 0.68 0.71 0.78 0.94 0.96 0.92 0.70 0.50 0.45 0.39 0.31 0.21 0.12 0.08 0.03 0.00 0.00 0.00 0.00 0.00 0.00 0.00 0.00 0.00 0.00 0.00 0.00 0.00 0.00 0.00 0.01 0.01 0.05 0.07 0.07 0.08 0.07
0.10 0.14 0.20 0.32 0.48 0.61 0.68 0.70 0.75 0.80 0.84 0.94 0.83 0.64 0.48 0.37 0.32 0.29 0.25 0.13 0.08 0.03 0.00 0.00 0.00 0.00 0.00 0.00 0.00 0.00 0.00 0.00 0.00 0.00 0.00 0.00 0.00 0.00 0.01 0.02 0.04 0.05 0.06
0.07 0.09 0.16 0.28 0.47 0.67 0.73 0.67 0.64 0.64 0.67 0.79 0.76 0.68 0.64 0.46 0.35 0.29 0.29 0.27 0.22 0.16 0.07 0.01 0.00 0.00 0.00 0.00 0.00 0.00 0.00 0.00 0.00 0.00 0.00 0.00 0.00 0.00 0.00 0.00 0.00 0.01 0.02
0.05 0.05 0.09 0.17 0.30 0.50 0.67 0.69 0.58 0.56 0.53 0.62 0.64 0.63 0.68 0.66 0.50 0.36 0.33 0.32 0.33 0.29 0.22 0.13 0.05 0.02 0.01 0.00 0.00 0.00 0.00 0.00 0.00 0.00 0.00 0.00 0.00 0.00 0.00 0.00 0.00 0.00 0.00
0.04 0.04 0.05 0.09 0.18 0.32 0.49 0.61 0.61 0.57 0.49 0.47 0.58 0.68 0.75 0.78 0.74 0.53 0.41 0.35 0.28 0.29 0.28 0.19 0.11 0.04 0.03 0.03 0.01 0.00 0.00 0.00 0.00 0.00 0.00 0.00 0.00 0.00 0.00 0.00 0.00 0.00 0.00
0.03 0.04 0.06 0.06 0.12 0.20 0.34 0.55 0.66 0.64 0.54 0.50 0.52 0.60 0.70 0.76 0.89 0.78 0.62 0.50 0.41 0.37 0.35 0.23 0.13 0.07 0.05 0.03 0.04 0.02 0.00 0.00 0.00 0.00 0.00 0.00 0.00 0.00 0.00 0.00 0.00 0.00 0.00
0.02 0.04 0.07 0.07 0.10 0.14 0.19 0.32 0.49 0.59 0.58 0.52 0.49 0.53 0.64 0.73 0.86 0.91 0.85 0.72 0.61 0.53 0.47 0.39 0.21 0.13 0.10 0.07 0.05 0.03 0.02 0.01 0.00 0.00 0.00 0.00 0.00 0.00 0.00 0.00 0.00 0.00 0.00
0.03 0.05 0.08 0.10 0.14 0.15 0.14 0.17 0.23 0.32 0.41 0.45 0.44 0.42 0.43 0.52 0.69 0.82 0.86 0.82 0.79 0.68 0.61 0.54 0.37 0.22 0.16 0.11 0.06 0.03 0.02 0.02 0.01 0.00 0.00 0.00 0.00 0.00 0.00 0.00 0.00 0.00 0.00
0.04 0.05 0.08 0.14 0.21 0.20 0.17 0.15 0.16 0.16 0.16 0.19 0.26 0.31 0.32 0.36 0.45 0.52 0.62 0.74 0.88 0.82 0.73 0.69 0.52 0.31 0.22 0.15 0.08 0.04 0.02 0.01 0.01 0.00 0.00 0.00 0.00 0.00 0.00 0.00 0.00 0.00 0.00
0.06 0.07 0.08 0.10 0.14 0.17 0.16 0.19 0.16 0.11 0.09 0.06 0.07 0.10 0.14 0.22 0.31 0.35 0.42 0.57 0.76 0.82 0.76 0.71 0.63 0.44 0.26 0.17 0.10 0.05 0.02 0.02 0.01 0.00 0.00 0.00 0.00 0.00 0.00 0.00 0.00 0.00 0.00
0.12 0.14 0.13 0.10 0.12 0.13 0.14 0.18 0.13 0.09 0.09 0.08 0.05 0.03 0.03 0.07 0.15 0.20 0.26 0.33 0.46 0.59 0.69 0.74 0.68 0.52 0.35 0.23 0.15 0.09 0.04 0.01 0.01 0.01 0.00 0.00 0.00 0.00 0.00 0.00 0.00 0.00 0.00
0.19 0.20 0.20 0.17 0.16 0.21 0.16 0.11 0.12 0.08 0.09 0.09 0.08 0.09 0.07 0.03 0.04 0.06 0.14 0.20 0.21 0.26 0.40 0.58 0.62 0.61 0.60 0.40 0.24 0.14 0.07 0.03 0.02 0.01 0.01 0.00 0.00 0.00 0.00 0.00 0.00 0.01 0.00
0.36 0.34 0.34 0.33 0.29 0.30 0.23 0.12 0.13 0.09 0.08 0.09 0.10 0.10 0.10 0.07 0.05 0.05 0.08 0.09 0.10 0.15 0.25 0.28 0.36 0.56 0.61 0.54 0.37 0.27 0.23 0.15 0.07 0.02 0.01 0.00 0.00 0.00 0.00 0.00 0.00 0.00 0.00
0.40 0.41 0.44 0.43 0.36 0.32 0.27 0.16 0.12 0.08 0.08 0.08 0.08 0.07 0.06 0.06 0.07 0.09 0.13 0.20 0.23 0.25 0.36 0.39 0.40 0.42 0.41 0.39 0.37 0.33 0.26 0.19 0.11 0.05 0.03 0.01 0.00 0.01 0.00 0.00 0.00 0.00 0.00
0.23 0.30 0.32 0.35 0.37 0.35 0.39 0.22 0.16 0.14 0.12 0.12 0.12 0.11 0.13 0.11 0.12 0.13 0.14 0.22 0.19 0.21 0.29 0.32 0.29 0.25 0.22 0.20 0.22 0.21 0.23 0.20 0.15 0.08 0.05 0.03 0.01 0.01 0.00 0.00 0.00 0.00 0.00